Location: Moscow
(55.7500°N, 37.5830°E)
Time: 05:41:31
(UTC+03:00)

Envisat - Pass Details

Date: 24 October 2021
Orbit: 764 x 766 km, 98.2° (Epoch: 28 November)

Event Time Altitude Azimuth Distance (km) Brightness Sun altitude
Rises 03:55:42 0° 28° (NNE) 3,247 7.0 -28.8°
Reaches altitude 10° 03:59:44 10° 59° (ENE) 2,313 6.4 -28.2°
Maximum altitude 04:01:35 12° 81° (E) 2,182 6.2 -28.0°
Drops below altitude 10° 04:03:26 10° 102° (ESE) 2,306 6.2 -27.8°
Sets 04:07:25 0° 134° (SE) 3,225 6.6 -27.2°
